Terug naar catalogus

DELTA 1 DEB

ActiefSSO
NORAD 10841·DEBRIS·🇺🇸 United States

Gelanceerd Jul 29, 1976 vanaf Vandenberg Space Force Base

Loading…

Volgende Passages (komende 24 uur)

TLE

VersSource: Space-Track

Epoch: Sep 14, 2026, 10:50 UTC

1 10841U 76077CM  26257.45175019 -.00000024  00000-0  14197-3 0  9997
2 10841 101.9596 243.5521 0066125 307.5240 207.8538 12.53078463290823

Volg DELTA 1 DEB in realtime met AllMySat

Download on the App Store